When you browse on this site, cookies collect data to enhance your experience and personalize the content and advertising you see.
Visit our Privacy Policy to learn more. By continuing to use the site, you agree to this use of cookies and data.
  • In Slovakia
  • List of Countries
  • For 7 days
  • Water Temperature
  • Satellite Maps
  • Weather Map
  • Weather Widgets
  • user-avatar
    Login

    Hourly Weather Quito

    Today, 12 December, Wednesday

    Time Temperature Precipitation Wind Pressure Humidity
    00:00 +16°C° 0 mm 2 mps 622 mmHg 88%
    01:00 +16°C° 0 mm 2 mps 622 mmHg 90%
    02:00 +15°C° 0 mm 2 mps 622 mmHg 90%
    03:00 +15°C° 0 mm 1 mps 622 mmHg 91%
    04:00 +15°C° 0 mm 1 mps 622 mmHg 92%
    05:00 +16°C° 0 mm 1 mps 622 mmHg 88%
    06:00 +18°C° 0 mm 1 mps 623 mmHg 84%
    07:00 +19°C° 0 mm 1 mps 624 mmHg 81%
    08:00 +21°C° 0.1 mm 1 mps 624 mmHg 71%
    09:00 +24°C° 0.1 mm 2 mps 625 mmHg 62%
    10:00 +26°C° 0.1 mm 2 mps 626 mmHg 53%
    11:00 +27°C° 0 mm 2 mps 625 mmHg 49%
    12:00 +28°C° 0 mm 2 mps 625 mmHg 44%
    13:00 +29°C° 0 mm 2 mps 625 mmHg 39%
    14:00 +28°C° 0 mm 2 mps 624 mmHg 40%
    15:00 +28°C° 0 mm 1 mps 624 mmHg 42%
    16:00 +28°C° 0 mm 1 mps 623 mmHg 43%
    17:00 +26°C° 0 mm 1 mps 623 mmHg 49%
    18:00 +23°C° 0 mm 1 mps 622 mmHg 55%
    19:00 +21°C° 0 mm 1 mps 622 mmHg 60%
    20:00 +19°C° 0 mm 2 mps 622 mmHg 63%
    21:00 +19°C° 0 mm 2 mps 622 mmHg 66%
    22:00 +18°C° 0 mm 2 mps 623 mmHg 69%
    23:00 +18°C° 0 mm 2 mps 623 mmHg 74%

    Tomorrow, 13 December, Thursday

    Time Temperature Precipitation Wind Pressure Humidity
    00:00 +17°C° 0 mm 2 mps 623 mmHg 78%
    01:00 +17°C° 0 mm 2 mps 623 mmHg 83%
    02:00 +17°C° 0 mm 2 mps 623 mmHg 84%
    03:00 +18°C° 0 mm 1 mps 623 mmHg 84%
    04:00 +18°C° 0 mm 1 mps 623 mmHg 85%
    05:00 +19°C° 0.1 mm 1 mps 623 mmHg 84%
    06:00 +19°C° 0.1 mm 1 mps 624 mmHg 82%
    07:00 +20°C° 0.1 mm 1 mps 624 mmHg 80%
    08:00 +22°C° 0.3 mm 1 mps 625 mmHg 71%
    09:00 +25°C° 0.3 mm 1 mps 626 mmHg 62%
    10:00 +27°C° 0.3 mm 1 mps 627 mmHg 53%
    11:00 +28°C° 0 mm 1 mps 626 mmHg 49%
    12:00 +29°C° 0 mm 1 mps 626 mmHg 46%
    13:00 +30°C° 0 mm 1 mps 626 mmHg 43%
    14:00 +28°C° 0.2 mm 1 mps 625 mmHg 49%
    15:00 +27°C° 0.2 mm 1 mps 624 mmHg 55%
    16:00 +26°C° 0.2 mm 1 mps 623 mmHg 62%
    17:00 +24°C° 0.2 mm 1 mps 623 mmHg 67%
    18:00 +22°C° 0.2 mm 1 mps 623 mmHg 73%
    19:00 +20°C° 0.2 mm 2 mps 623 mmHg 78%
    20:00 +19°C° 0.2 mm 2 mps 623 mmHg 81%
    21:00 +18°C° 0.2 mm 2 mps 623 mmHg 85%
    22:00 +18°C° 0.2 mm 2 mps 624 mmHg 88%
    23:00 +17°C° 0 mm 2 mps 624 mmHg 89%

    Day after tomorrow, 14 December, Friday

    Time Temperature Precipitation Wind Pressure Humidity
    00:00 +17°C° 0 mm 2 mps 623 mmHg 90%
    01:00 +17°C° 0 mm 2 mps 623 mmHg 92%
    02:00 +17°C° 0 mm 2 mps 623 mmHg 92%
    03:00 +16°C° 0 mm 2 mps 622 mmHg 93%
    04:00 +16°C° 0 mm 2 mps 622 mmHg 94%
    05:00 +17°C° 0 mm 2 mps 623 mmHg 92%
    06:00 +17°C° 0 mm 2 mps 624 mmHg 90%
    07:00 +18°C° 0 mm 2 mps 624 mmHg 88%
    08:00 +21°C° 0.6 mm 1 mps 625 mmHg 81%
    09:00 +23°C° 0.6 mm 1 mps 625 mmHg 73%
    10:00 +25°C° 0.6 mm 1 mps 626 mmHg 66%
    11:00 +25°C° 0.2 mm 1 mps 625 mmHg 61%
    12:00 +26°C° 0.2 mm 1 mps 625 mmHg 57%
    13:00 +27°C° 0.2 mm 1 mps 625 mmHg 52%
    14:00 +27°C° 0.1 mm 1 mps 624 mmHg 55%
    15:00 +26°C° 0.1 mm 1 mps 624 mmHg 57%
    16:00 +25°C° 0.1 mm 1 mps 623 mmHg 60%
    17:00 +24°C° 0.1 mm 1 mps 623 mmHg 67%
    18:00 +22°C° 0.1 mm 1 mps 623 mmHg 73%
    19:00 +20°C° 0.1 mm 1 mps 623 mmHg 80%
    20:00 +19°C° 0.1 mm 1 mps 623 mmHg 82%
    21:00 +19°C° 0.1 mm 1 mps 623 mmHg 85%
    22:00 +18°C° 0.1 mm 1 mps 624 mmHg 87%
    23:00 +18°C° 0.3 mm 1 mps 623 mmHg 90%

    15 December, Saturday

    Time Temperature Precipitation Wind Pressure Humidity
    00:00 +16°C° 0.3 mm 1 mps 623 mmHg 92%
    01:00 +16°C° 0.3 mm 1 mps 622 mmHg 94%
    02:00 +16°C° 0.1 mm 1 mps 622 mmHg 94%
    03:00 +16°C° 0.1 mm 2 mps 622 mmHg 94%
    04:00 +16°C° 0.1 mm 2 mps 622 mmHg 94%
    05:00 +16°C° 0 mm 2 mps 623 mmHg 92%
    06:00 +18°C° 0 mm 1 mps 623 mmHg 90%
    07:00 +19°C° 0 mm 1 mps 624 mmHg 88%
    08:00 +21°C° 0.4 mm 1 mps 625 mmHg 80%
    09:00 +24°C° 0.4 mm 1 mps 625 mmHg 71%
    10:00 +26°C° 0.4 mm 1 mps 626 mmHg 63%
    11:00 +26°C° 0.9 mm 1 mps 625 mmHg 64%
    12:00 +26°C° 0.9 mm 1 mps 625 mmHg 65%
    13:00 +26°C° 0.9 mm 1 mps 624 mmHg 66%
    14:00 +25°C° 1 mm 1 mps 623 mmHg 69%
    15:00 +25°C° 1 mm 1 mps 623 mmHg 72%
    16:00 +24°C° 1 mm 1 mps 623 mmHg 75%
    17:00 +22°C° 0.7 mm 1 mps 623 mmHg 80%
    18:00 +20°C° 0.7 mm 2 mps 623 mmHg 85%
    19:00 +18°C° 0.7 mm 2 mps 623 mmHg 90%
    20:00 +18°C° 0 mm 2 mps 623 mmHg 91%
    21:00 +17°C° 0 mm 2 mps 623 mmHg 92%
    22:00 +18°C° 0 mm 1 mps 623 mmHg 92%
    23:00 +16°C° 0 mm 1 mps 623 mmHg 92%

    16 December, Sunday

    Time Temperature Precipitation Wind Pressure Humidity
    00:00 +16°C° 0 mm 2 mps 622 mmHg 92%
    01:00 +15°C° 0 mm 2 mps 622 mmHg 92%
    02:00 +15°C° 0 mm 1 mps 622 mmHg 93%
    03:00 +15°C° 0 mm 1 mps 622 mmHg 94%
    04:00 +15°C° 0 mm 1 mps 621 mmHg 94%
    05:00 +16°C° 0 mm 1 mps 622 mmHg 92%
    06:00 +18°C° 0 mm 1 mps 623 mmHg 90%
    07:00 +19°C° 0 mm 1 mps 624 mmHg 88%
    08:00 +21°C° 0.1 mm 1 mps 624 mmHg 78%
    09:00 +24°C° 0.1 mm 1 mps 625 mmHg 69%
    10:00 +27°C° 0.1 mm 1 mps 626 mmHg 59%
    11:00 +28°C° 0.1 mm 1 mps 626 mmHg 56%
    12:00 +28°C° 0.1 mm 1 mps 625 mmHg 53%
    13:00 +29°C° 0.1 mm 1 mps 625 mmHg 49%
    14:00 +28°C° 0.1 mm 1 mps 624 mmHg 53%
    15:00 +27°C° 0.1 mm 1 mps 624 mmHg 56%
    16:00 +27°C° 0.1 mm 1 mps 623 mmHg 59%
    17:00 +24°C° 0.2 mm 1 mps 623 mmHg 68%
    18:00 +22°C° 0.2 mm 1 mps 623 mmHg 76%
    19:00 +20°C° 0.2 mm 1 mps 622 mmHg 84%
    20:00 +19°C° 0 mm 1 mps 622 mmHg 86%
    21:00 +18°C° 0 mm 2 mps 623 mmHg 87%
    22:00 +17°C° 0 mm 2 mps 623 mmHg 88%
    23:00 +17°C° 0 mm 2 mps 622 mmHg 90%

    17 December, Monday

    Time Temperature Precipitation Wind Pressure Humidity
    00:00 +16°C° 0 mm 2 mps 622 mmHg 91%
    01:00 +16°C° 0 mm 2 mps 622 mmHg 93%
    02:00 +16°C° 0 mm 2 mps 622 mmHg 94%
    03:00 +16°C° 0 mm 2 mps 622 mmHg 95%
    04:00 +15°C° 0 mm 2 mps 622 mmHg 96%
    05:00 +16°C° 0 mm 2 mps 622 mmHg 93%
    06:00 +17°C° 0 mm 2 mps 623 mmHg 90%
    07:00 +18°C° 0 mm 2 mps 624 mmHg 87%
    08:00 +21°C° 0.7 mm 1 mps 624 mmHg 81%
    09:00 +23°C° 0.7 mm 1 mps 625 mmHg 74%
    10:00 +25°C° 0.7 mm 1 mps 625 mmHg 68%
    11:00 +25°C° 1.2 mm 1 mps 625 mmHg 67%
    12:00 +26°C° 1.2 mm 1 mps 624 mmHg 67%
    13:00 +24°C° 1.2 mm 0 mps 624 mmHg 66%
    14:00 +26°C° 0.5 mm 1 mps 624 mmHg 64%
    15:00 +26°C° 0.5 mm 1 mps 623 mmHg 63%
    16:00 +26°C° 0.5 mm 1 mps 623 mmHg 61%
    17:00 +24°C° 0.7 mm 1 mps 623 mmHg 70%
    18:00 +22°C° 0.7 mm 1 mps 623 mmHg 78%
    19:00 +20°C° 0.7 mm 1 mps 622 mmHg 86%
    20:00 +19°C° 0.7 mm 1 mps 622 mmHg 88%
    21:00 +18°C° 0.7 mm 2 mps 622 mmHg 91%
    22:00 +17°C° 0.7 mm 2 mps 623 mmHg 93%
    23:00 +17°C° 0.2 mm 2 mps 622 mmHg 94%
    Show more